RADUGA 7 [-]

Last updated on Wed Jun 28 2023 00:02:57 GMT+0000 (Coordinated Universal Time)

1 12003U 80081A 23177.74285396 -.00000256 00000+0 00000+0 0 9999 2 12003 8.5649 300.0632 0008930 263.2439 296.4744 1.00220246112527

Satellite not in orbit

RADUGA 7 [-]